"2009-07-02 00:00:00",1025582,3.024,289.7,7.181,0.244,22.02,110.9127,27.24,28.2,17.72,0,111.4,13.09,28.09,251.7
"2009-07-02 00:00:30",1025583,3.106,291.7,10.22,0.325,21.98,110.9305,27.29,28.21,17.76,0,111.4,13.09,28.13,253.7
"2009-07-02 00:01:00",1025584,2.694,280.4,8.22,0.289,21.91,110.9297,27.28,28.23,17.75,0,111.4,13.09,28.13,242.4
"2009-07-02 00:01:30",1025585,2.73,290,5.797,0.319,21.96,110.93,27.29,28.24,17.88,0,111.4,13.09,28.13,252.0
"2009-07-02 00:02:00",1025586,2.948,312.9,5.56,0.205,21.99,110.9146,27.25,28.24,17.84,0,111.4,13.09,28.09,274.9
"2009-07-02 00:02:30",1025587,1.982,307.2,15.64,0.432,21.96,110.8964,27.2,28.2,17.83,0,111.4,13.09,28.05,269.2
"2009-07-02 00:03:00",1025588,2.932,285.9,5.384,0.313,21.79,110.8961,27.2,28.18,17.69,0,111.4,13.09,28.04,247.9
"2009-07-02 00:03:30",1025589,2.765,293.8,11.23,0.224,21.78,110.8961,27.2,28.17,17.6,0,111.4,13.08,28.04,255.8
"2009-07-02 00:04:00",1025590,2.386,310.7,5.716,0.196,21.77,110.8961,27.2,28.16,17.74,0,111.4,13.09,28.04,272.7
"2009-07-02 00:04:30",1025591,2.866,321.5,2.843,0.221,21.77,110.8949,27.19,28.17,17.65,0,111.4,13.08,28.04,283.5
"2009-07-02 00:05:00",1025592,2.978,323.6,3.333,0.154,21.76,110.9027,27.21,28.17,17.4,0,111.4,13.08,28.06,285.6
"2009-07-02 00:05:30",1025593,3.121,315.8,2.209,0.34,21.79,110.9187,27.26,28.2,17.31,0,111.4,13.09,28.10,277.8
"2009-07-02 00:06:00",1025594,3,323.3,4.671,0.207,21.8,110.9216,27.26,28.21,17.3,0,111.4,13.09,28.11,285.3
"2009-07-02 00:06:30",1025595,2.878,319.4,2.115,0.103,21.76,110.9146,27.25,28.23,16.99,0,111.4,13.09,28.09,281.4
"2009-07-02 00:07:00",1025596,2.62,319.8,9.33,0.385,21.75,110.9174,27.25,28.25,17.5,0,111.4,13.09,28.10,281.8
"2009-07-02 00:07:30",1025597,2.792,315,7.372,0.398,21.77,110.9279,27.28,28.26,17.9,0,111.4,13.09,28.13,277.0
"2009-07-02 00:08:00",1025598,2.983,307.9,6.351,0.156,21.86,110.9092,27.23,28.27,18.14,0,111.4,13.09,28.08,269.9
"2009-07-02 00:08:30",1025599,2.486,327.6,7.429,0.202,22.07,110.8872,27.17,28.23,18.18,0,111.4,13.09,28.02,289.6
"2009-07-02 00:09:00",1025600,2.249,334.5,7.822,0.265,21.89,110.8706,27.13,28.19,18.07,0,111.4,13.09,27.98,296.5
"2009-07-02 00:09:30",1025601,0.974,352.6,19.14,0.447,21.96,110.869,27.13,28.15,18.03,0,111.4,13.09,27.97,314.6
"2009-07-02 00:10:00",1025602,1.507,343.1,12.22,0.377,21.84,110.8737,27.14,28.16,17.93,0,111.4,13.09,27.99,305.1
"2009-07-02 00:10:30",1025603,2.35,324.8,4.184,0.15,21.59,110.8933,27.19,28.17,17.88,0,111.4,13.09,28.04,286.8
"2009-07-02 00:11:00",1025604,2.508,337.6,6.197,0.377,21.61,110.9017,27.21,28.2,18,0,111.4,13.09,28.06,299.6
"2009-07-02 00:11:30",1025605,3.083,339.8,4.478,0.214,21.65,110.911,27.24,28.22,18.45,0,111.4,13.09,28.08,301.8
"2009-07-02 00:12:00",1025606,3.247,337.9,3.078,0.37,21.72,110.9337,27.29,28.24,18.55,0,111.4,13.09,28.14,299.9
"2009-07-02 00:12:30",1025607,2.587,328.1,9.49,0.623,21.7,110.9416,27.31,28.26,18.34,0,111.4,13.09,28.16,290.1
"2009-07-02 00:13:00",1025608,2.582,339.4,11.88,0.888,21.78,110.9598,27.36,28.28,18.19,0,111.4,13.09,28.21,301.4
"2009-07-02 00:13:30",1025609,1.908,360,13.56,0.668,22.04,110.9679,27.38,28.32,18.29,0,111.4,13.09,28.23,322.0
"2009-07-02 00:14:00",1025610,2.071,351.3,17.74,0.693,22.04,110.9727,27.39,28.35,18.2,0,111.5,13.09,28.24,313.3
"2009-07-02 00:14:30",1025611,2.316,353,11.04,0.84,22.03,110.9751,27.4,28.35,18.07,0,111.5,13.09,28.25,315.0
"2009-07-02 00:15:00",1025612,1.666,1.427,18.68,0.844,21.94,110.9625,27.37,28.34,17.97,0,111.5,13.09,28.22,323.4
"2009-07-02 00:15:30",1025613,1.836,8.56,16.57,0.835,22.08,110.9589,27.36,28.33,18.24,0,111.5,13.09,28.21,330.6
"2009-07-02 00:16:00",1025614,2.072,14.68,9.96,0.943,21.78,110.9524,27.34,28.32,19.53,0,111.5,13.09,28.19,336.7
"2009-07-02 00:16:30",1025615,2.046,14.61,8.47,0.85,21.47,110.9435,27.32,28.32,20.57,0,111.5,13.09,28.17,336.6
"2009-07-02 00:17:00",1025616,3.681,18.15,5.958,1.102,21.19,110.9353,27.3,28.31,20.75,0,111.5,13.09,28.15,340.1
"2009-07-02 00:17:30",1025617,4.276,22.75,3.905,0.652,21.12,110.9561,27.35,28.3,19.4,0,111.5,13.08,28.20,344.8
"2009-07-02 00:18:00",1025618,5.648,19.14,3.136,0.321,21.11,110.9625,27.37,28.31,19.17,0,111.5,13.08,28.22,341.1
"2009-07-02 00:18:30",1025619,4.715,22.01,2.519,0.37,21.31,110.981,27.42,28.34,19.18,0,111.5,13.08,28.26,344.0
"2009-07-02 00:19:00",1025620,5.066,22.98,2.379,0.435,21.48,110.9934,27.45,28.36,18.72,0,111.5,13.08,28.30,345.0
"2009-07-02 00:19:30",1025621,5.619,22.93,3.308,0.632,21.51,111.0036,27.47,28.38,18.59,0,111.5,13.08,28.32,344.9
"2009-07-02 00:20:00",1025622,5.58,21.39,4.825,0.571,21.58,111.0241,27.53,28.43,18.57,0,111.5,13.08,28.37,343.4
"2009-07-02 00:20:30",1025623,6.183,25.69,3.465,0.528,21.53,111.0267,27.53,28.45,18.68,0,111.5,13.08,28.38,347.7
"2009-07-02 00:21:00",1025624,6.798,24.16,3.733,0.314,21.5,111.0329,27.55,28.47,18.32,0,111.5,13.08,28.40,346.2
"2009-07-02 00:21:30",1025625,6.156,24.04,2.339,0.655,21.49,111.0365,27.56,28.48,18.04,0,111.5,13.08,28.41,346.0
"2009-07-02 00:22:00",1025626,7.031,32.08,4.784,0.898,21.21,111.0463,27.58,28.5,20.24,0,111.5,13.08,28.43,354.1
"2009-07-02 00:22:30",1025627,9.21,43.64,4.069,0.682,21.24,111.036,27.56,28.53,22.13,0,111.5,13.08,28.41,5.6
"2009-07-02 00:23:00",1025628,7.594,50.17,5.887,0.817,21.24,111.0259,27.53,28.52,21.26,0,111.5,13.08,28.38,12.2
"2009-07-02 00:23:30",1025629,8.57,42.25,3.296,0.736,21.3,111.0007,27.47,28.51,21.97,0,111.5,13.08,28.31,4.2
"2009-07-02 00:24:00",1025630,9.71,51.4,6.078,0.75,21.26,110.9637,27.37,28.48,22.99,0,111.5,13.08,28.22,13.4
"2009-07-02 00:24:30",1025631,9.35,47.04,6.683,0.731,21.33,110.9201,27.26,28.43,23.19,0,111.5,13.08,28.11,9.0
"2009-07-02 00:25:00",1025632,10.36,44.73,5.134,0.77,21.32,110.8708,27.13,28.37,23.78,0,111.5,13.08,27.98,6.7
"2009-07-02 00:25:30",1025633,9.82,38.63,2.948,0.876,21.27,110.8144,26.99,28.27,23.14,0,111.5,13.08,27.83,0.6
"2009-07-02 00:26:00",1025634,7.939,40.6,3.397,0.483,21.32,110.7684,26.87,28.18,22.84,0,111.5,13.08,27.72,2.6
"2009-07-02 00:26:30",1025635,8.81,43.91,6.358,0.926,21.43,110.7212,26.75,28.12,22.53,0,111.5,13.08,27.59,5.9
"2009-07-02 00:27:00",1025636,8.73,42.48,2.213,0.569,21.48,110.6797,26.64,28,21.75,0,111.5,13.08,27.49,4.5
"2009-07-02 00:27:30",1025637,9.44,42.92,4.98,0.793,21.52,110.6382,26.53,27.9,21.82,0,111.4,13.08,27.38,4.9
"2009-07-02 00:28:00",1025638,8.6,53.93,2.641,0.478,21.28,110.5989,26.43,27.81,23.51,0,111.4,13.09,27.28,15.9
"2009-07-02 00:28:30",1025639,9.82,48.72,3.032,0.583,21.37,110.5585,26.33,27.73,25.21,0,111.4,13.09,27.17,10.7
"2009-07-02 00:29:00",1025640,8.63,50.09,5.073,0.465,21.4,110.5184,26.23,27.63,25.41,0,111.4,13.09,27.07,12.1
"2009-07-02 00:29:30",1025641,8.29,46.05,3.059,0.425,21.53,110.4845,26.14,27.55,26.99,0,111.4,13.09,26.98,8.0
"2009-07-02 00:30:00",1025642,7.755,47.43,3.173,0.466,21.85,110.45,26.05,27.45,27.56,0,111.4,13.09,26.89,9.4
"2009-07-02 00:30:30",1025643,7.845,47.33,4.625,0.487,21.73,110.4248,25.99,27.36,25.87,0,111.4,13.09,26.83,9.3
"2009-07-02 00:31:00",1025644,8.31,53.41,2.701,0.382,21.73,110.3951,25.91,27.28,23.96,0,111.4,13.09,26.75,15.4
"2009-07-02 00:31:30",1025645,7.558,57.37,2.472,0.365,21.75,110.3677,25.84,27.21,23.9,0,111.4,13.09,26.68,19.4
"2009-07-02 00:32:00",1025646,7.238,49.94,3.69,0.519,21.8,110.3426,25.77,27.13,24.33,0,111.4,13.09,26.62,11.9
"2009-07-02 00:32:30",1025647,7.938,46.7,3.882,0.604,21.94,110.322,25.72,27.05,24.52,0,111.4,13.09,26.56,8.7
"2009-07-02 00:33:00",1025648,8.4,48.4,2.7,0.71,21.82,110.2995,25.66,26.99,24.08,0,111.4,13.09,26.51,10.4
"2009-07-02 00:33:30",1025649,6.886,49.8,3.472,0.613,21.63,110.2778,25.61,26.93,24.09,0,111.4,13.09,26.45,11.8
"2009-07-02 00:34:00",1025650,7.114,47.89,4.535,0.443,21.53,110.2705,25.59,26.86,23.96,0,111.4,13.09,26.43,9.9
"2009-07-02 00:34:30",1025651,7.228,51.02,5.409,0.52,21.58,110.2634,25.57,26.81,23.95,0,111.4,13.09,26.41,13.0
"2009-07-02 00:35:00",1025652,5.356,52.86,5.328,0.493,21.54,110.2585,25.56,26.76,24.28,0,111.4,13.09,26.40,14.9
"2009-07-02 00:35:30",1025653,6.211,52.38,4.201,0.753,21.47,110.2557,25.55,26.75,24.18,0,111.4,13.09,26.39,14.4
"2009-07-02 00:36:00",1025654,5.25,49.61,5.904,0.624,21.45,110.2557,25.55,26.72,24.08,0,111.4,13.09,26.39,11.6
"2009-07-02 00:36:30",1025655,7.429,45.51,6.669,0.772,21.52,110.2549,25.55,26.67,24.44,0,111.4,13.09,26.39,7.5
"2009-07-02 00:37:00",1025656,6.498,35.68,4.351,0.635,21.48,110.253,25.54,26.64,23.55,0,111.4,13.09,26.39,357.7
"2009-07-02 00:37:30",1025657,6.244,45.35,7.52,0.679,21.46,110.2535,25.55,26.63,23.98,0,111.4,13.09,26.39,7.3
"2009-07-02 00:38:00",1025658,6.231,52.94,7.011,0.649,21.43,110.2537,25.55,26.62,26.35,0,111.4,13.09,26.39,14.9
"2009-07-02 00:38:30",1025659,6.104,61.37,4.424,0.421,21.42,110.259,25.56,26.61,28.42,0,111.4,13.09,26.40,23.4
"2009-07-02 00:39:00",1025660,6.624,56.52,5.615,0.641,21.27,110.2541,25.55,26.59,28.63,0,111.4,13.09,26.39,18.5
"2009-07-02 00:39:30",1025661,7.325,71,7.261,0.602,21.28,110.2506,25.54,26.57,29.44,0,111.4,13.09,26.38,33.0
"2009-07-02 00:40:00",1025662,5.229,76.23,13.43,0.839,21.23,110.2437,25.52,26.58,29.17,0,111.4,13.09,26.36,38.2
"2009-07-02 00:40:30",1025663,4.775,53.38,4.373,0.497,21.26,110.2409,25.51,26.57,28.1,0,111.4,13.09,26.35,15.4
"2009-07-02 00:41:00",1025664,5.598,77.47,6.652,0.784,21.3,110.2342,25.5,26.56,28.64,0,111.4,13.09,26.34,39.5
"2009-07-02 00:41:30",1025665,8.04,73.69,2.564,0.332,21.42,110.2322,25.49,26.55,29.67,0,111.4,13.09,26.33,35.7
"2009-07-02 00:42:00",1025666,7.547,66.11,8.03,0.666,21.54,110.2322,25.49,26.53,30.66,0,111.3,13.09,26.33,28.1
"2009-07-02 00:42:30",1025667,7.511,74.33,3.182,0.6,21.56,110.2317,25.49,26.54,30.47,0,111.3,13.1,26.33,36.3
"2009-07-02 00:43:00",1025668,6.992,69.97,5.892,0.596,21.56,110.2185,25.46,26.52,30.28,0,111.3,13.1,26.30,32.0
"2009-07-02 00:43:30",1025669,6.845,67.36,3.746,0.551,21.61,110.2064,25.42,26.5,30.89,0,111.3,13.1,26.27,29.4
"2009-07-02 00:44:00",1025670,6.842,77.64,2.908,0.495,21.63,110.2003,25.41,26.49,30.64,0,111.3,13.1,26.25,39.6
"2009-07-02 00:44:30",1025671,7.794,69.57,5.259,0.398,21.56,110.1986,25.4,26.48,30.21,0,111.3,13.1,26.25,31.6
"2009-07-02 00:45:00",1025672,7.898,67.51,3.761,0.347,21.55,110.1986,25.4,26.47,29.65,0,111.3,13.1,26.25,29.5
"2009-07-02 00:45:30",1025673,7.611,72.31,5.328,0.401,21.64,110.1955,25.4,26.46,29.93,0,111.3,13.1,26.24,34.3
"2009-07-02 00:46:00",1025674,7.738,70.66,2.5,0.228,21.54,110.1784,25.35,26.45,29.51,0,111.3,13.1,26.19,32.7
"2009-07-02 00:46:30",1025675,6.918,73.76,4.32,0.193,21.57,110.1694,25.33,26.44,30.01,0,111.3,13.1,26.17,35.8
"2009-07-02 00:47:00",1025676,7.537,69.16,5.132,0.614,21.4,110.1652,25.32,26.41,29.61,0,111.3,13.1,26.16,31.2
"2009-07-02 00:47:30",1025677,8.49,73.06,2.506,0.351,21.42,110.1658,25.32,26.4,30.47,0,111.3,13.1,26.16,35.1
"2009-07-02 00:48:00",1025678,9.15,67.21,3.066,0.265,21.16,110.1684,25.33,26.41,30.92,0,111.3,13.1,26.17,29.2
"2009-07-02 00:48:30",1025679,8.98,70.86,2.425,0.509,21.07,110.1564,25.3,26.39,31.1,0,111.3,13.1,26.14,32.9
"2009-07-02 00:49:00",1025680,9.63,72.7,1.466,0.192,21.14,110.1477,25.27,26.37,31.29,0,111.3,13.1,26.11,34.7
"2009-07-02 00:49:30",1025681,9.2,72.35,2.687,0.184,21.08,110.1531,25.29,26.34,31.35,0,111.3,13.1,26.13,34.3
"2009-07-02 00:50:00",1025682,9.35,72.6,3.36,0.284,21.14,110.1317,25.23,26.34,31.26,0,111.3,13.1,26.07,34.6
"2009-07-02 00:50:30",1025683,10.02,75.11,2.05,0.354,21.1,110.1243,25.21,26.3,30.68,0,111.3,13.1,26.05,37.1
"2009-07-02 00:51:00",1025684,10.67,73.59,4.096,0.239,21.02,110.0965,25.14,26.27,30.39,0,111.3,13.1,25.98,35.6
"2009-07-02 00:51:30",1025685,11.03,68.61,2.478,0.462,21,110.0777,25.09,26.24,30.75,0,111.3,13.1,25.93,30.6
"2009-07-02 00:52:00",1025686,10.01,70.11,2.224,0.299,21.05,110.0553,25.04,26.19,30.77,0,111.3,13.1,25.88,32.1
"2009-07-02 00:52:30",1025687,10.46,70.44,3.033,1.206,21.06,110.0286,24.97,26.15,30.76,0,111.3,13.1,25.81,32.4
"2009-07-02 00:53:00",1025688,9.81,69.44,1.511,0.291,20.98,110.01,24.92,26.1,30.52,0,111.3,13.1,25.76,31.4
"2009-07-02 00:53:30",1025689,9.74,68.47,2.453,0.549,21.08,109.9902,24.87,26.04,30.93,0,111.3,13.09,25.71,30.5
"2009-07-02 00:54:00",1025690,9.6,67.37,5.769,0.445,21.11,109.9666,24.81,25.99,31.15,0,111.3,13.09,25.65,29.4
"2009-07-02 00:54:30",1025691,9.39,65.99,3.396,0.567,21.18,109.9419,24.75,25.94,31.59,0,111.3,13.1,25.58,28.0
"2009-07-02 00:55:00",1025692,8.88,59.58,2.327,0.851,21,109.9223,24.69,25.9,31.72,0,111.3,13.1,25.53,21.6
"2009-07-02 00:55:30",1025693,7.808,71.08,3.397,0.619,21.1,109.8995,24.64,25.84,31.72,0,111.3,13.1,25.47,33.1
"2009-07-02 00:56:00",1025694,9.15,69.66,2.621,0.961,21,109.8768,24.58,25.79,32.02,0,111.3,13.1,25.42,31.7
"2009-07-02 00:56:30",1025695,9.78,71.64,2.968,0.503,20.86,109.8639,24.54,25.76,32.36,0,111.3,13.1,25.38,33.6
"2009-07-02 00:57:00",1025696,10.44,74.35,2.169,0.358,20.78,109.8359,24.47,25.68,32.4,0,111.3,13.1,25.31,36.3
"2009-07-02 00:57:30",1025697,10.48,72.4,2.023,0.27,20.69,109.8165,24.42,25.64,32.41,0,111.3,13.1,25.26,34.4
"2009-07-02 00:58:00",1025698,10.24,71.79,1.653,0.268,20.75,109.7963,24.37,25.6,32.76,0,111.3,13.1,25.21,33.8
"2009-07-02 00:58:30",1025699,10.67,68.14,1.488,0.179,20.7,109.7694,24.3,25.55,32.71,0,111.2,13.1,25.14,30.1
"2009-07-02 00:59:00",1025700,10.45,66.98,1.81,0.213,20.79,109.7497,24.25,25.5,32.54,0,111.2,13.11,25.09,29.0
"2009-07-02 00:59:30",1025701,10.7,74.53,1.94,0.21,20.87,109.7236,24.18,25.45,33.77,0,111.2,13.11,25.02,36.5
"2009-07-02 01:00:00",1025702,10.31,71.03,2.409,0.342,20.85,109.7018,24.13,25.4,34.35,0,111.2,13.11,24.96,33.0
"2009-07-02 01:00:30",1025703,10.19,74.22,1.906,0.226,20.87,109.6831,24.08,25.34,34.2,0,111.2,13.11,24.92,36.2
"2009-07-02 01:01:00",1025704,10.08,73.42,2.589,0.463,20.84,109.6704,24.05,25.28,34.45,0,111.2,13.11,24.88,35.4
"2009-07-02 01:01:30",1025705,10.19,71.69,2.52,0.333,20.78,109.6522,24,25.25,33.71,0,111.2,13.11,24.84,33.7
"2009-07-02 01:02:00",1025706,10.72,71.53,1.803,0.288,20.77,109.6374,23.96,25.19,34.48,0,111.2,13.11,24.80,33.5
"2009-07-02 01:02:30",1025707,9.84,76.38,2.731,0.29,20.9,109.6177,23.91,25.14,35.03,0,111.2,13.11,24.75,38.4
"2009-07-02 01:03:00",1025708,9.3,77.01,3.575,0.417,20.88,109.5989,23.86,25.09,35.15,0,111.2,13.11,24.70,39.0
"2009-07-02 01:03:30",1025709,9.37,74.11,2.779,0.538,20.95,109.5879,23.84,25.04,35.18,0,111.2,13.12,24.67,36.1
"2009-07-02 01:04:00",1025710,10.73,72.95,2.207,0.266,20.99,109.5661,23.78,24.99,34.39,0,111.2,13.12,24.61,34.9
"2009-07-02 01:04:30",1025711,10.89,73.82,2.352,0.395,21.09,109.5579,23.76,24.94,35.13,0,111.2,13.12,24.59,35.8
"2009-07-02 01:05:00",1025712,10.67,67.7,1.761,0.183,21,109.535,23.7,24.9,34.93,0,111.2,13.12,24.53,29.7
"2009-07-02 01:05:30",1025713,10.66,72.18,1.904,0.209,21.1,109.5281,23.68,24.86,34.83,0,111.2,13.12,24.52,34.2
"2009-07-02 01:06:00",1025714,9.78,72.47,4.079,0.359,21.09,109.5026,23.62,24.82,35.87,0,111.2,13.12,24.45,34.5
"2009-07-02 01:06:30",1025715,9.48,75.48,1.898,0.257,21.04,109.4864,23.58,24.77,37.07,0,111.2,13.12,24.41,37.5
"2009-07-02 01:07:00",1025716,9.43,77.96,2.075,0.374,21.05,109.4645,23.52,24.71,37.64,0,111.2,13.12,24.35,40.0
"2009-07-02 01:07:30",1025717,10.09,77.01,2.412,0.31,21.15,109.4496,23.48,24.68,38.22,0,111.2,13.12,24.31,39.0
"2009-07-02 01:08:00",1025718,9.9,78.63,1.198,0.219,21.12,109.4305,23.43,24.63,38.2,0,111.2,13.12,24.27,40.6
"2009-07-02 01:08:30",1025719,9.43,76.93,3.781,0.813,21.05,109.4086,23.38,24.59,38.46,0,111.2,13.12,24.21,38.9
"2009-07-02 01:09:00",1025720,9.3,73.23,1.83,0.377,21.07,109.3965,23.34,24.54,38.11,0,111.2,13.12,24.18,35.2
"2009-07-02 01:09:30",1025721,8.99,77.3,2.812,0.328,21.04,109.373,23.28,24.5,37.78,0,111.2,13.12,24.12,39.3
"2009-07-02 01:10:00",1025722,9.27,79.84,1.283,0.432,20.89,109.364,23.26,24.47,39.38,0,111.2,13.12,24.09,41.8
"2009-07-02 01:10:30",1025723,9.18,76.27,3.445,0.669,20.88,109.344,23.21,24.43,39.19,0,111.2,13.12,24.04,38.3
"2009-07-02 01:11:00",1025724,9.69,75.8,1.229,0.161,20.96,109.3381,23.19,24.39,38.79,0,111.2,13.12,24.03,37.8
"2009-07-02 01:11:30",1025725,10,76.92,1.302,0.141,21.16,109.3275,23.17,24.35,37.9,0,111.2,13.12,24.00,38.9
"2009-07-02 01:12:00",1025726,9.89,76.62,0.735,0.151,21.28,109.315,23.13,24.31,36.03,0,111.2,13.12,23.97,38.6
"2009-07-02 01:12:30",1025727,9.93,76.2,0.745,0.113,21.31,109.3172,23.14,24.28,36.53,0,111.1,13.12,23.97,38.2
"2009-07-02 01:13:00",1025728,10.19,73.75,0.935,0.144,21.26,109.3011,23.1,24.24,37.48,0,111.1,13.12,23.93,35.8
"2009-07-02 01:13:30",1025729,9.96,73.81,1.405,0.203,21.09,109.2919,23.08,24.2,38.3,0,111.1,13.12,23.91,35.8
"2009-07-02 01:14:00",1025730,10.1,74.95,2.174,0.354,21.22,109.2901,23.07,24.2,39.73,0,111.1,13.12,23.90,36.9
"2009-07-02 01:14:30",1025731,10.17,73.89,2.312,0.504,21.21,109.2815,23.05,24.16,40.36,0,111.1,13.12,23.88,35.9
"2009-07-02 01:15:00",1025732,9.17,72.34,4.35,0.278,21.1,109.2674,23.01,24.14,41,0,111.1,13.12,23.84,34.3
"2009-07-02 01:15:30",1025733,8.79,71.84,5.081,0.837,21.14,109.2649,23.01,24.12,40.62,0,111.1,13.13,23.84,33.8
"2009-07-02 01:16:00",1025734,8.85,71.63,2.08,0.901,21.02,109.2573,22.99,24.08,41.2,0,111.1,13.13,23.82,33.6
"2009-07-02 01:16:30",1025735,8.42,69.7,2.22,0.235,20.94,109.238,22.94,24.06,41.25,0,111.1,13.13,23.77,31.7
"2009-07-02 01:17:00",1025736,8.39,69,2.613,0.351,20.95,109.2318,22.92,24.03,40.94,0,111.1,13.13,23.75,31.0
"2009-07-02 01:17:30",1025737,7.961,73.69,2.157,0.283,21.06,109.2304,22.92,24.02,40.98,0,111.1,13.13,23.75,35.7
"2009-07-02 01:18:00",1025738,7.37,69.46,2.43,0.343,20.93,109.215,22.88,24,41.18,0,111.1,13.13,23.71,31.5
"2009-07-02 01:18:30",1025739,7.208,70.63,2.774,0.34,20.92,109.2026,22.85,23.97,41.19,0,111.1,13.13,23.68,32.6
"2009-07-02 01:19:00",1025740,7.385,70.75,2.082,0.253,20.95,109.1981,22.83,23.95,41.19,0,111.1,13.13,23.67,32.8
"2009-07-02 01:19:30",1025741,7.412,70.15,1.804,0.355,20.91,109.1925,22.82,23.95,41.23,0,111.1,13.13,23.65,32.2
"2009-07-02 01:20:00",1025742,7.797,66.55,3.139,0.404,20.83,109.1761,22.78,23.92,41.06,0,111.1,13.13,23.61,28.6
"2009-07-02 01:20:30",1025743,8.51,68.11,1.706,0.315,20.86,109.1702,22.76,23.91,41.08,0,111.1,13.14,23.59,30.1
"2009-07-02 01:21:00",1025744,8.28,73.23,3.992,0.443,20.87,109.174,22.77,23.87,41.28,0,111.1,13.14,23.60,35.2
"2009-07-02 01:21:30",1025745,9.24,79.2,1.393,0.339,20.98,109.161,22.74,23.85,41.06,0,111.1,13.14,23.57,41.2
"2009-07-02 01:22:00",1025746,9.96,76.35,1.014,0.193,20.98,109.1561,22.73,23.83,39.4,0,111.1,13.14,23.56,38.3
"2009-07-02 01:22:30",1025747,10.13,76.7,1.997,0.183,21.04,109.1546,22.72,23.81,39.1,0,111.1,13.14,23.55,38.7
"2009-07-02 01:23:00",1025748,10.12,75.1,0.688,0.313,21.02,109.1327,22.67,23.78,38.04,0,111.1,13.14,23.50,37.1
"2009-07-02 01:23:30",1025749,10.36,76.71,0.5,0.19,20.96,109.1261,22.65,23.75,39.07,0,111.1,13.14,23.48,38.7
"2009-07-02 01:24:00",1025750,10.18,74.6,2.021,0.533,20.75,109.1198,22.63,23.74,39.98,0,111.1,13.14,23.46,36.6
"2009-07-02 01:24:30",1025751,9.65,78.78,1.57,0.231,20.94,109.1094,22.61,23.7,40.04,0,111.1,13.14,23.44,40.8
"2009-07-02 01:25:00",1025752,8.78,76.83,2.71,0.408,20.75,109.1017,22.59,23.69,40.71,0,111.1,13.14,23.42,38.8
"2009-07-02 01:25:30",1025753,9.27,78.08,1.846,0.483,20.79,109.1001,22.58,23.66,41.29,0,111.1,13.14,23.41,40.1
"2009-07-02 01:26:00",1025754,9.63,78.63,3.881,0.45,20.97,109.0905,22.56,23.64,41.19,0,111.1,13.14,23.39,40.6
"2009-07-02 01:26:30",1025755,9.25,82,2.912,0.478,20.84,109.072,22.51,23.61,41.51,0,111.1,13.14,23.34,44.0
"2009-07-02 01:27:00",1025756,8.64,77.48,2.031,0.376,20.75,109.0664,22.5,23.6,41.86,0,111,13.14,23.33,39.5
"2009-07-02 01:27:30",1025757,8.6,82.2,3.643,0.484,20.79,109.0644,22.49,23.57,42.05,0,111,13.14,23.32,44.2
"2009-07-02 01:28:00",1025758,10.23,80.5,2.531,0.262,21.01,109.0476,22.45,23.55,41.28,0,111,13.14,23.28,42.5
"2009-07-02 01:28:30",1025759,8.99,73.69,5.093,0.799,20.63,109.0327,22.41,23.53,41.64,0,111,13.14,23.24,35.7
"2009-07-02 01:29:00",1025760,10.12,78.68,2.59,0.135,20.91,109.0318,22.41,23.51,40.88,0,111,13.14,23.24,40.7
"2009-07-02 01:29:30",1025761,9.62,77.19,1.852,0.613,20.77,109.0111,22.35,23.49,41.55,0,111,13.14,23.18,39.2
"2009-07-02 01:30:00",1025762,9.13,82.3,1.779,0.423,20.67,109.0004,22.33,23.45,42.56,0,111,13.14,23.16,44.3
"2009-07-02 01:30:30",1025763,8.96,74.22,5.128,0.62,20.75,108.9982,22.32,23.45,41.81,0,111,13.14,23.15,36.2
"2009-07-02 01:31:00",1025764,7.498,76.24,2.683,0.437,20.67,108.9908,22.3,23.43,41.8,0,111,13.14,23.13,38.2
"2009-07-02 01:31:30",1025765,8.17,81.5,4.389,0.247,20.63,108.985,22.29,23.39,42.03,0,111,13.14,23.12,43.5
"2009-07-02 01:32:00",1025766,8.31,81,2.667,0.311,20.63,108.9885,22.3,23.36,42.2,0,111,13.15,23.13,43.0
"2009-07-02 01:32:30",1025767,8.98,83.8,2.368,0.393,20.73,108.9844,22.29,23.34,41.65,0,111,13.15,23.12,45.8
"2009-07-02 01:33:00",1025768,9.47,85.2,1.146,0.338,20.9,108.9631,22.23,23.32,41.88,0,111,13.15,23.06,47.2
"2009-07-02 01:33:30",1025769,9.91,83.8,1.662,0.256,20.69,108.9597,22.22,23.3,42.27,0,111,13.15,23.05,45.8
"2009-07-02 01:34:00",1025770,10.16,84.5,1.611,0.287,20.66,108.9605,22.22,23.27,42.6,0,111,13.15,23.05,46.5
"2009-07-02 01:34:30",1025771,10.25,81.2,1.832,0.257,20.61,108.9425,22.18,23.26,43.15,0,111,13.15,23.01,43.2
"2009-07-02 01:35:00",1025772,9.57,83.3,2.092,0.491,20.59,108.9333,22.15,23.23,43.59,0,111,13.15,22.98,45.3
"2009-07-02 01:35:30",1025773,8.87,79.84,4.681,0.528,20.48,108.934,22.16,23.21,43.92,0,111,13.15,22.99,41.8
"2009-07-02 01:36:00",1025774,8.74,82,3.275,0.626,20.53,108.9135,22.1,23.18,44.11,0,111,13.16,22.93,44.0
"2009-07-02 01:36:30",1025775,9.1,81.2,3.245,0.335,20.58,108.9009,22.07,23.16,44.14,0,111,13.16,22.90,43.2
"2009-07-02 01:37:00",1025776,9.02,78.64,1.479,0.206,20.6,108.8975,22.06,23.13,44.16,0,111,13.16,22.89,40.6
"2009-07-02 01:37:30",1025777,8.51,76.8,1.693,0.164,20.42,108.8767,22.01,23.12,44.59,0,111,13.16,22.84,38.8
"2009-07-02 01:38:00",1025778,8.58,78.23,1.961,0.258,20.38,108.8674,21.99,23.09,44.85,0,111,13.16,22.81,40.2
"2009-07-02 01:38:30",1025779,8.5,76.1,2.203,0.288,20.33,108.8672,21.99,23.06,44.96,0,111,13.16,22.81,38.1
"2009-07-02 01:39:00",1025780,8.66,76.92,1.488,0.294,20.31,108.8514,21.94,23.04,45.32,0,111,13.16,22.77,38.9
"2009-07-02 01:39:30",1025781,8.54,77.73,1.598,0.22,20.28,108.8352,21.9,23.01,45.53,0,111,13.16,22.73,39.7
"2009-07-02 01:40:00",1025782,8.63,79.56,1.635,0.216,20.28,108.8323,21.9,23,45.52,0,111,13.16,22.72,41.6
"2009-07-02 01:40:30",1025783,8.38,79.55,3.785,0.4,20.24,108.8161,21.85,22.97,45.96,0,111,13.16,22.68,41.6
"2009-07-02 01:41:00",1025784,8.37,82.4,1.172,0.187,20.24,108.8037,21.82,22.95,46.04,0,111,13.16,22.65,44.4
"2009-07-02 01:41:30",1025785,8.55,82.4,0.649,0.136,20.28,108.789,21.78,22.91,46.18,0,111,13.16,22.61,44.4
"2009-07-02 01:42:00",1025786,8.7,83.8,1.327,0.222,20.32,108.7746,21.75,22.87,46.18,0,111,13.16,22.58,45.8
"2009-07-02 01:42:30",1025787,8.92,86.3,1.321,0.186,20.52,108.7598,21.71,22.84,45.28,0,111,13.16,22.54,48.3
"2009-07-02 01:43:00",1025788,8.92,88.4,0.766,0.116,20.9,108.7506,21.69,22.82,44.24,0,110.9,13.16,22.51,50.4
"2009-07-02 01:43:30",1025789,8.79,87.8,0.722,0.235,20.95,108.7496,21.68,22.78,44.69,0,110.9,13.16,22.51,49.8
"2009-07-02 01:44:00",1025790,9.16,87.6,0.624,0.095,20.56,108.7374,21.65,22.75,43.54,0,110.9,13.16,22.48,49.6
"2009-07-02 01:44:30",1025791,9,88.1,0.658,0.18,20.43,108.7335,21.64,22.74,44.26,0,110.9,13.16,22.47,50.1
"2009-07-02 01:45:00",1025792,9.26,87.8,0.317,0.177,20.71,108.7319,21.64,22.71,43.79,0,110.9,13.16,22.47,49.8
"2009-07-02 01:45:30",1025793,9.28,86.6,0.67,0.196,20.55,108.73,21.63,22.7,43.63,0,110.9,13.16,22.46,48.6
"2009-07-02 01:46:00",1025794,9.1,86.7,0.909,0.141,20.21,108.7264,21.62,22.69,45.34,0,110.9,13.16,22.45,48.7
"2009-07-02 01:46:30",1025795,8.95,88.8,0.842,0.169,20.14,108.7297,21.63,22.68,45.9,0,110.9,13.16,22.46,50.8
"2009-07-02 01:47:00",1025796,8.33,87.3,2.181,0.392,19.97,108.731,21.64,22.68,46.09,0,110.9,13.16,22.46,49.3
"2009-07-02 01:47:30",1025797,8.48,84.1,2.237,0.469,20.07,108.7321,21.64,22.66,46.65,0,110.9,13.16,22.47,46.1
"2009-07-02 01:48:00",1025798,8.32,84.9,1.108,0.15,20.14,108.7107,21.58,22.64,45.92,0,110.9,13.16,22.41,46.9
"2009-07-02 01:48:30",1025799,9.06,85.3,1.066,0.258,20.5,108.7018,21.56,22.61,43.6,0,110.9,13.17,22.39,47.3